Regional Weather Roundup
Issued by NWS

Home | Current Version | Previous Version | Text Only | Print | Product List | Glossary On
Versions: 1 2 3 4 5 6 7 8 9 10 11 12 13 14 15 16 17 18 19 20 21 22 23 24 25 26 27 28 29 30 31 32 33 34 35 36 37 38 39 40 41 42 43 44 45 46 47 48 49 50
000
ASUS43 KLMK 111310
RWRKY
KENTUCKY REGIONAL WEATHER ROUNDUP
NATIONAL WEATHER SERVICE LOUISVILLE KY
800 AM EST MON DEC 11 2017

NOTE "FAIR" INDICATES FEW OR NO CLOUDS BELOW 12,000 FEET
WITH NO SIGNIFICANT WEATHER AND/OR OBSTRUCTIONS TO VISIBILITY.

KYZ001>023-026-027-061>063-070>075-111400-
WESTERN AND SOUTH CENTRAL KENTUCKY

CITY           SKY/WX    TMP DP  RH WIND       PRES   REMARKS
PADUCAH        CLEAR     27  24  89 SE3       30.09F
HENDERSON      CLOUDY    25  23  92 S3        30.09
OWENSBORO      CLEAR     26  24  92 SE3       30.10F
HOPKINSVILLE   CLEAR     29  24  82 SE5       30.11S WCI  23
BOWLING GREEN  PTCLDY    24  21  88 NE3       30.14R
GLASGOW        CLEAR     24  22  93 CALM      30.13S
$$

KYZ024-025-028>034-038-045-046-053-111400-
NORTH CENTRAL KENTUCKY

CITY           SKY/WX    TMP DP  RH WIND       PRES   REMARKS
LOUISVILLE/SDF MOCLDY    28  24  85 CALM      30.11S
LOUISVILLE/LOU CLEAR     27  24  89 CALM      30.11F
FORT KNOX      PTCLDY    24  21  88 CALM      30.08F
$$

KYZ035>037-039>044-047>052-055>060-089>105-111400-
NORTHEAST KENTUCKY

CITY           SKY/WX    TMP DP  RH WIND       PRES   REMARKS
LEXINGTON      CLEAR     24  19  81 S8        30.10S WCI  15
COVINGTON      CLOUDY    23  22  96 S3        30.08S
FRANKFORT      CLEAR     23  17  78 CALM      30.08F
$$

KYZ054-064>069-076>088-106>120-111400-
SOUTHEAST KENTUCKY

CITY           SKY/WX    TMP DP  RH WIND       PRES   REMARKS
JACKSON        CLEAR     32  21  64 SW5       30.09S WCI  27
LONDON         CLEAR     25  20  81 CALM      30.11F
SOMERSET       CLEAR     27  23  86 CALM      30.14S
MIDDLESBORO    CLEAR     23  21  93 CALM      30.15S
MONTICELLO     SUNNY     20  18  92 CALM      30.14F
$$





USA.gov is the U.S. government's official web portal to all federal, state and local government web resources and services.